QPF
0.00 0.00 0.00 0.00 0.00 0.00 0.00 0.00 0.00 0.00 0.00 0.00 0.00 0.00 0.00 0.00 0.00 0.00 0.00 0.01 0.01 0.01 0.00 0.00 0.00 0.01 0.01 0.01 0.01 0.02 0.03 0.04 0.05 0.07 0.08 0.10 0.13 0.15
0.00 0.00 0.00 0.00 0.00 0.00 0.00 0.00 0.00 0.00 0.00 0.00 0.00 0.00 0.00 0.00 0.01 0.00 0.01 0.01 0.01 0.01 0.00 0.00 0.00 0.00 0.00 0.01 0.01 0.01 0.01 0.02 0.03 0.04 0.06 0.08 0.11 0.17
0.00 0.00 0.00 0.00 0.00 0.00 0.00 0.00 0.00 0.00 0.00 0.00 0.01 0.01 0.01 0.00 0.01 0.01 0.01 0.01 0.01 0.01 0.00 0.01 0.01 0.00 0.00 0.00 0.00 0.00 0.01 0.01 0.01 0.02 0.03 0.05 0.06 0.06
0.01 0.00 0.00 0.00 0.00 0.00 0.00 0.00 0.00 0.00 0.00 0.00 0.00 0.00 0.01 0.01 0.01 0.01 0.01 0.00 0.00 0.00 0.01 0.01 0.01 0.00 0.00 0.00 0.00 0.00 0.00 0.00 0.00 0.00 0.01 0.03 0.05 0.05
0.01 0.01 0.00 0.00 0.00 0.00 0.00 0.00 0.00 0.00 0.00 0.00 0.00 0.00 0.00 0.00 0.00 0.00 0.00 0.00 0.00 0.01 0.01 0.02 0.01 0.00 0.00 0.00 0.00 0.00 0.00 0.00 0.00 0.00 0.00 0.02 0.03 0.03
0.00 0.00 0.00 0.00 0.00 0.00 0.00 0.00 0.00 0.00 0.00 0.00 0.00 0.00 0.00 0.00 0.00 0.00 0.00 0.00 0.00 0.00 0.00 0.00 0.00 0.00 0.00 0.00 0.00 0.00 0.00 0.00 0.00 0.00 0.00 0.01 0.01 0.01
0.00 0.00 0.00 0.00 0.00 0.00 0.00 0.00 0.00 0.00 0.00 0.00 0.00 0.00 0.00 0.00 0.00 0.00 0.00 0.00 0.00 0.00 0.00 0.00 0.00 0.00 0.00 0.00 0.00 0.00 0.00 0.00 0.00 0.01 0.01 0.01 0.01 0.01
0.01 0.00 0.00 0.00 0.00 0.00 0.00 0.00 0.00 0.00 0.00 0.00 0.00 0.00 0.00 0.00 0.00 0.00 0.00 0.00 0.00 0.00 0.00 0.00 0.00 0.00 0.00 0.00 0.00 0.00 0.00 0.00 0.00 0.00 0.01 0.01 0.01 0.01
0.00 0.00 0.00 0.00 0.00 0.01 0.01 0.00 0.00 0.00 0.00 0.00 0.00 0.00 0.00 0.00 0.00 0.00 0.00 0.00 0.00 0.00 0.00 0.00 0.00 0.00 0.00 0.00 0.00 0.00 0.00 0.00 0.00 0.00 0.00 0.00 0.00 0.01
0.00 0.00 0.00 0.00 0.00 0.01 0.01 0.01 0.01 0.01 0.00 0.00 0.00 0.00 0.00 0.00 0.00 0.00 0.00 0.00 0.00 0.00 0.00 0.00 0.00 0.00 0.00 0.00 0.00 0.00 0.00 0.00 0.00 0.00 0.00 0.00 0.00 0.00
0.00 0.00 0.00 0.01 0.01 0.02 0.01 0.01 0.00 0.00 0.00 0.00 0.00 0.00 0.00 0.00 0.00 0.00 0.00 0.00 0.00 0.00 0.00 0.00 0.00 0.00 0.00 0.00 0.00 0.00 0.00 0.00 0.00 0.00 0.00 0.00 0.00 0.00
0.01 0.01 0.01 0.01 0.01 0.01 0.01 0.00 0.00 0.00 0.00 0.00 0.00 0.00 0.00 0.00 0.00 0.00 0.00 0.00 0.00 0.00 0.00 0.00 0.00 0.00 0.00 0.00 0.00 0.00 0.00 0.00 0.00 0.00 0.00 0.00 0.00 0.00
0.01 0.01 0.01 0.01 0.01 0.01 0.01 0.01 0.00 0.00 0.00 0.00 0.00 0.00 0.00 0.00 0.00 0.00 0.00 0.00 0.00 0.00 0.00 0.00 0.00 0.00 0.00 0.00 0.00 0.00 0.00 0.00 0.00 0.00 0.00 0.00 0.00 0.00
0.01 0.01 0.00 0.00 0.00 0.00 0.00 0.00 0.00 0.00 0.00 0.00 0.00 0.00 0.00 0.00 0.00 0.00 0.00 0.00 0.00 0.00 0.00 0.00 0.00 0.00 0.00 0.00 0.00 0.00 0.00 0.00 0.00 0.00 0.00 0.00 0.00 0.00
0.01 0.00 0.00 0.00 0.00 0.00 0.00 0.00 0.00 0.00 0.00 0.00 0.00 0.00 0.00 0.00 0.00 0.00 0.00 0.00 0.00 0.00 0.00 0.00 0.00 0.00 0.00 0.00 0.00 0.00 0.00 0.00 0.00 0.00 0.00 0.00 0.00 0.00
0.02 0.01 0.01 0.01 0.01 0.01 0.01 0.00 0.00 0.00 0.00 0.00 0.00 0.00 0.00 0.00 0.00 0.00 0.00 0.00 0.00 0.00 0.00 0.00 0.00 0.00 0.00 0.00 0.00 0.00 0.00 0.00 0.00 0.00 0.00 0.00 0.00 0.00
0.02 0.01 0.02 0.02 0.01 0.01 0.01 0.00 0.00 0.00 0.00 0.00 0.00 0.00 0.00 0.00 0.00 0.00 0.00 0.00 0.00 0.00 0.00 0.00 0.00 0.00 0.00 0.00 0.01 0.00 0.00 0.00 0.00 0.00 0.00 0.00 0.00 0.00
0.02 0.03 0.03 0.02 0.01 0.01 0.00 0.00 0.00 0.00 0.00 0.01 0.01 0.01 0.01 0.00 0.00 0.00 0.00 0.00 0.00 0.00 0.00 0.00 0.00 0.01 0.01 0.01 0.01 0.01 0.01 0.00 0.00 0.00 0.00 0.00 0.00 0.00
0.01 0.02 0.01 0.00 0.00 0.00 0.00 0.00 0.00 0.00 0.00 0.00 0.00 0.01 0.01 0.00 0.00 0.00 0.00 0.00 0.00 0.00 0.00 0.00 0.01 0.01 0.02 0.01 0.00 0.00 0.00 0.00 0.00 0.01 0.00 0.01 0.01 0.00
0.01 0.01 0.01 0.00 0.00 0.00 0.00 0.00 0.00 0.00 0.00 0.00 0.00 0.00 0.00 0.00 0.00 0.00 0.00 0.00 0.00 0.00 0.00 0.00 0.01 0.02 0.02 0.02 0.01 0.01 0.00 0.01 0.01 0.02 0.01 0.01 0.00 0.00
0.00 0.00 0.01 0.01 0.01 0.01 0.01 0.01 0.01 0.01 0.00 0.00 0.00 0.00 0.00 0.00 0.00 0.00 0.00 0.01 0.01 0.01 0.01 0.01 0.01 0.01 0.02 0.02 0.01 0.01 0.00 0.00 0.01 0.02 0.02 0.02 0.02 0.01
0.00 0.00 0.00 0.01 0.01 0.01 0.01 0.01 0.00 0.00 0.00 0.00 0.00 0.00 0.00 0.00 0.00 0.00 0.01 0.01 0.01 0.01 0.01 0.01 0.01 0.01 0.01 0.01 0.01 0.01 0.00 0.00 0.00 0.01 0.01 0.02 0.03 0.03
0.00 0.00 0.01 0.01 0.01 0.01 0.00 0.00 0.00 0.00 0.00 0.00 0.00 0.00 0.00 0.00 0.00 0.01 0.01 0.01 0.01 0.01 0.01 0.01 0.01 0.01 0.01 0.01 0.01 0.01 0.01 0.01 0.01 0.00 0.00 0.00 0.01 0.01
MSLP
1026.23 1026.48 1026.78 1027.12 1027.48 1027.84 1028.16 1028.43 1028.65 1028.79 1028.86 1028.85 1028.76 1028.58 1028.33 1028.03 1027.69 1027.33 1026.99 1026.67 1026.41 1026.20 1026.05 1025.92 1025.81 1025.69 1025.54 1025.34 1025.09 1024.79 1024.46 1024.11 1023.75 1023.38 1023.02 1022.64 1022.23 1021.78
1027.19 1027.38 1027.61 1027.86 1028.13 1028.40 1028.66 1028.90 1029.10 1029.26 1029.36 1029.40 1029.35 1029.22 1029.00 1028.72 1028.37 1028.00 1027.63 1027.28 1026.98 1026.73 1026.53 1026.38 1026.25 1026.11 1025.95 1025.75 1025.50 1025.21 1024.88 1024.53 1024.16 1023.79 1023.40 1022.98 1022.53 1022.03
1028.08 1028.24 1028.40 1028.58 1028.76 1028.96 1029.16 1029.36 1029.55 1029.72 1029.86 1029.94 1029.95 1029.86 1029.69 1029.43 1029.10 1028.72 1028.32 1027.94 1027.59 1027.30 1027.06 1026.87 1026.71 1026.55 1026.38 1026.17 1025.91 1025.62 1025.30 1024.95 1024.58 1024.19 1023.78 1023.34 1022.84 1022.30
1028.90 1029.03 1029.15 1029.26 1029.38 1029.52 1029.67 1029.84 1030.02 1030.21 1030.38 1030.50 1030.56 1030.53 1030.40 1030.17 1029.85 1029.47 1029.06 1028.65 1028.27 1027.93 1027.65 1027.41 1027.21 1027.02 1026.82 1026.59 1026.32 1026.03 1025.69 1025.34 1024.96 1024.56 1024.14 1023.67 1023.15 1022.56
1029.62 1029.73 1029.82 1029.90 1029.98 1030.07 1030.19 1030.34 1030.52 1030.71 1030.91 1031.07 1031.17 1031.18 1031.09 1030.90 1030.61 1030.24 1029.82 1029.39 1028.98 1028.61 1028.28 1028.00 1027.74 1027.51 1027.27 1027.01 1026.72 1026.40 1026.05 1025.68 1025.28 1024.87 1024.43 1023.95 1023.40 1022.79
1030.20 1030.32 1030.40 1030.47 1030.53 1030.60 1030.69 1030.83 1031.01 1031.21 1031.42 1031.60 1031.74 1031.79 1031.74 1031.58 1031.31 1030.96 1030.56 1030.12 1029.69 1029.29 1028.93 1028.60 1028.30 1028.02 1027.73 1027.42 1027.09 1026.73 1026.34 1025.94 1025.52 1025.09 1024.64 1024.14 1023.59 1022.97
1030.63 1030.77 1030.86 1030.93 1030.98 1031.05 1031.14 1031.28 1031.45 1031.65 1031.87 1032.07 1032.22 1032.30 1032.28 1032.15 1031.92 1031.60 1031.21 1030.79 1030.36 1029.94 1029.55 1029.19 1028.85 1028.51 1028.17 1027.80 1027.41 1027.00 1026.57 1026.12 1025.67 1025.21 1024.74 1024.24 1023.69 1023.08
1030.89 1031.05 1031.16 1031.25 1031.32 1031.40 1031.50 1031.63 1031.80 1032.01 1032.22 1032.43 1032.60 1032.69 1032.70 1032.60 1032.40 1032.11 1031.76 1031.36 1030.95 1030.53 1030.13 1029.75 1029.37 1028.98 1028.58 1028.16 1027.71 1027.23 1026.74 1026.24 1025.74 1025.25 1024.76 1024.25 1023.71 1023.12
1030.97 1031.15 1031.30 1031.41 1031.52 1031.62 1031.74 1031.88 1032.06 1032.26 1032.48 1032.68 1032.85 1032.95 1032.98 1032.91 1032.74 1032.50 1032.18 1031.82 1031.43 1031.04 1030.64 1030.24 1029.84 1029.42 1028.97 1028.48 1027.97 1027.43 1026.87 1026.31 1025.76 1025.23 1024.71 1024.19 1023.66 1023.09
1030.86 1031.08 1031.27 1031.43 1031.58 1031.72 1031.86 1032.03 1032.22 1032.42 1032.63 1032.83 1033.00 1033.11 1033.14 1033.10 1032.97 1032.76 1032.49 1032.17 1031.82 1031.44 1031.06 1030.66 1030.24 1029.79 1029.31 1028.77 1028.20 1027.59 1026.97 1026.35 1025.75 1025.17 1024.61 1024.08 1023.54 1022.98
1030.61 1030.87 1031.11 1031.32 1031.52 1031.71 1031.90 1032.10 1032.30 1032.51 1032.72 1032.92 1033.08 1033.20 1033.24 1033.21 1033.11 1032.94 1032.70 1032.42 1032.10 1031.76 1031.39 1031.00 1030.57 1030.10 1029.59 1029.02 1028.40 1027.74 1027.06 1026.38 1025.72 1025.08 1024.48 1023.91 1023.36 1022.80
1030.26 1030.56 1030.86 1031.14 1031.40 1031.65 1031.88 1032.12 1032.35 1032.57 1032.79 1032.99 1033.15 1033.26 1033.31 1033.29 1033.21 1033.06 1032.85 1032.59 1032.30 1031.97 1031.62 1031.23 1030.80 1030.33 1029.79 1029.20 1028.54 1027.85 1027.12 1026.39 1025.67 1024.98 1024.33 1023.71 1023.12 1022.54
1029.83 1030.19 1030.55 1030.90 1031.23 1031.54 1031.84 1032.11 1032.38 1032.63 1032.85 1033.05 1033.21 1033.32 1033.37 1033.36 1033.28 1033.14 1032.94 1032.70 1032.41 1032.09 1031.74 1031.36 1030.93 1030.45 1029.90 1029.29 1028.62 1027.90 1027.14 1026.36 1025.59 1024.85 1024.13 1023.46 1022.82 1022.19
1029.35 1029.78 1030.21 1030.63 1031.04 1031.42 1031.77 1032.10 1032.40 1032.67 1032.91 1033.12 1033.28 1033.39 1033.44 1033.42 1033.33 1033.19 1032.98 1032.73 1032.44 1032.12 1031.76 1031.37 1030.93 1030.44 1029.90 1029.28 1028.60 1027.87 1027.09 1026.28 1025.47 1024.67 1023.90 1023.16 1022.45 1021.77
1028.84 1029.34 1029.84 1030.34 1030.81 1031.25 1031.66 1032.04 1032.38 1032.68 1032.94 1033.16 1033.33 1033.44 1033.48 1033.45 1033.36 1033.20 1032.98 1032.71 1032.40 1032.06 1031.68 1031.27 1030.82 1030.32 1029.77 1029.16 1028.48 1027.74 1026.95 1026.13 1025.28 1024.44 1023.61 1022.80 1022.03 1021.28
1028.27 1028.84 1029.42 1029.98 1030.52 1031.03 1031.49 1031.91 1032.29 1032.63 1032.91 1033.15 1033.32 1033.43 1033.47 1033.44 1033.33 1033.16 1032.92 1032.62 1032.28 1031.91 1031.50 1031.07 1030.60 1030.09 1029.53 1028.92 1028.25 1027.51 1026.72 1025.89 1025.02 1024.15 1023.27 1022.40 1021.56 1020.74
1027.64 1028.28 1028.92 1029.55 1030.15 1030.71 1031.22 1031.68 1032.10 1032.46 1032.78 1033.03 1033.22 1033.35 1033.39 1033.36 1033.24 1033.05 1032.79 1032.47 1032.10 1031.70 1031.26 1030.80 1030.30 1029.78 1029.21 1028.60 1027.93 1027.20 1026.42 1025.58 1024.71 1023.80 1022.89 1021.97 1021.07 1020.19
1026.94 1027.64 1028.33 1029.01 1029.66 1030.27 1030.82 1031.32 1031.77 1032.17 1032.52 1032.80 1033.02 1033.16 1033.22 1033.19 1033.08 1032.89 1032.62 1032.28 1031.88 1031.45 1030.98 1030.48 1029.96 1029.42 1028.84 1028.22 1027.55 1026.83 1026.05 1025.22 1024.34 1023.42 1022.48 1021.52 1020.58 1019.64
1026.19 1026.93 1027.67 1028.39 1029.07 1029.71 1030.30 1030.84 1031.32 1031.75 1032.13 1032.45 1032.70 1032.87 1032.96 1032.95 1032.85 1032.67 1032.39 1032.05 1031.64 1031.18 1030.68 1030.16 1029.62 1029.05 1028.46 1027.83 1027.16 1026.43 1025.65 1024.82 1023.94 1023.01 1022.05 1021.07 1020.09 1019.11
1025.42 1026.19 1026.95 1027.70 1028.40 1029.06 1029.68 1030.25 1030.77 1031.24 1031.65 1032.01 1032.29 1032.50 1032.62 1032.64 1032.57 1032.40 1032.13 1031.79 1031.37 1030.90 1030.39 1029.85 1029.29 1028.70 1028.08 1027.44 1026.75 1026.02 1025.24 1024.40 1023.52 1022.58 1021.61 1020.62 1019.61 1018.60
1024.68 1025.46 1026.23 1026.98 1027.70 1028.38 1029.01 1029.61 1030.16 1030.66 1031.11 1031.50 1031.83 1032.07 1032.22 1032.28 1032.23 1032.08 1031.84 1031.50 1031.09 1030.62 1030.10 1029.55 1028.97 1028.36 1027.72 1027.06 1026.35 1025.61 1024.81 1023.97 1023.08 1022.14 1021.16 1020.15 1019.13 1018.10
1024.01 1024.78 1025.54 1026.29 1027.01 1027.69 1028.34 1028.96 1029.53 1030.06 1030.55 1030.97 1031.33 1031.60 1031.79 1031.87 1031.85 1031.72 1031.50 1031.18 1030.78 1030.31 1029.80 1029.24 1028.64 1028.02 1027.37 1026.68 1025.96 1025.19 1024.38 1023.52 1022.62 1021.67 1020.69 1019.68 1018.64 1017.60
1023.46 1024.20 1024.93 1025.66 1026.37 1027.05 1027.71 1028.34 1028.93 1029.49 1029.99 1030.44 1030.82 1031.11 1031.32 1031.42 1031.42 1031.31 1031.10 1030.80 1030.42 1029.96 1029.45 1028.90 1028.30 1027.67 1027.01 1026.31 1025.56 1024.78 1023.95 1023.07 1022.15 1021.19 1020.20 1019.19 1018.15 1017.11
Thickness
5674 5672 5671 5669 5668 5666 5664 5662 5657 5650 5646 5647 5648 5649 5650 5650 5649 5649 5649 5649 5649 5648 5648 5648 5648 5647 5646 5646 5646 5646 5645 5645 5646 5646 5646 5646 5647 5648
5669 5668 5666 5665 5664 5663 5661 5658 5656 5651 5644 5642 5642 5643 5644 5644 5644 5644 5643 5643 5642 5642 5641 5641 5640 5639 5638 5638 5637 5636 5636 5635 5635 5636 5636 5636 5637 5637
5665 5664 5662 5660 5659 5657 5656 5653 5650 5648 5641 5638 5637 5638 5638 5638 5637 5637 5636 5636 5635 5634 5634 5633 5632 5631 5630 5629 5628 5627 5626 5626 5625 5625 5625 5625 5626 5626
5660 5659 5657 5656 5653 5652 5650 5647 5645 5643 5639 5634 5632 5632 5632 5631 5630 5630 5629 5628 5627 5626 5625 5624 5623 5622 5621 5619 5618 5617 5616 5615 5615 5614 5614 5614 5614 5614
5655 5654 5652 5651 5648 5646 5644 5642 5639 5637 5634 5630 5626 5624 5624 5624 5623 5622 5621 5620 5619 5618 5617 5615 5613 5612 5611 5609 5608 5607 5606 5605 5604 5603 5602 5602 5602 5602
5651 5650 5648 5646 5644 5642 5640 5636 5633 5630 5627 5623 5620 5617 5616 5615 5614 5612 5611 5610 5609 5608 5607 5605 5603 5602 5601 5599 5597 5596 5594 5593 5592 5591 5591 5590 5590 5590
5646 5645 5644 5642 5640 5638 5635 5631 5628 5624 5620 5617 5613 5610 5608 5606 5605 5603 5601 5600 5599 5598 5596 5595 5593 5592 5590 5588 5586 5584 5583 5581 5580 5580 5579 5578 5578 5578
5640 5639 5638 5636 5635 5633 5631 5628 5624 5620 5615 5611 5607 5603 5601 5599 5597 5596 5592 5591 5589 5588 5585 5584 5582 5580 5579 5577 5574 5572 5571 5570 5568 5567 5567 5566 5565 5565
5635 5633 5633 5631 5628 5626 5624 5621 5618 5615 5612 5607 5602 5599 5596 5594 5590 5588 5584 5580 5578 5577 5574 5573 5571 5568 5567 5564 5562 5561 5559 5557 5556 5554 5553 5552 5552 5551
5629 5628 5626 5624 5622 5620 5617 5613 5610 5608 5605 5602 5599 5595 5592 5588 5584 5580 5576 5572 5569 5566 5563 5561 5560 5557 5556 5553 5551 5549 5546 5544 5542 5541 5540 5539 5538 5537
5623 5622 5620 5618 5617 5614 5610 5606 5603 5601 5598 5595 5592 5589 5585 5581 5576 5571 5566 5562 5558 5556 5552 5548 5547 5545 5544 5542 5539 5536 5533 5531 5529 5527 5526 5524 5524 5523
5617 5616 5615 5613 5611 5607 5603 5600 5595 5593 5590 5587 5583 5579 5576 5571 5567 5562 5557 5551 5546 5543 5541 5536 5533 5530 5531 5531 5527 5524 5521 5518 5516 5514 5512 5510 5509 5508
5612 5610 5609 5607 5604 5601 5597 5593 5590 5586 5582 5577 5573 5569 5566 5561 5557 5552 5547 5542 5536 5532 5529 5524 5521 5516 5513 5514 5514 5511 5508 5505 5503 5501 5498 5496 5494 5492
5608 5606 5604 5601 5598 5594 5590 5587 5583 5578 5573 5568 5563 5559 5555 5551 5547 5543 5538 5533 5528 5523 5519 5514 5509 5505 5501 5500 5500 5499 5496 5493 5490 5488 5485 5483 5481 5478
5604 5601 5598 5594 5590 5586 5583 5579 5574 5568 5563 5558 5554 5550 5546 5542 5538 5533 5529 5524 5519 5513 5509 5504 5499 5494 5489 5487 5486 5485 5483 5482 5479 5475 5473 5470 5467 5465
5596 5593 5590 5585 5581 5577 5573 5569 5564 5559 5555 5550 5545 5541 5537 5532 5527 5523 5518 5513 5508 5504 5499 5493 5489 5484 5481 5477 5474 5473 5470 5467 5466 5463 5460 5458 5455 5453
5589 5584 5580 5575 5571 5566 5562 5559 5554 5550 5545 5541 5536 5531 5527 5522 5517 5512 5506 5501 5496 5492 5489 5484 5479 5475 5471 5467 5464 5463 5459 5457 5453 5451 5449 5448 5446 5443
5582 5576 5571 5567 5563 5558 5554 5550 5546 5541 5537 5532 5527 5522 5517 5512 5507 5501 5495 5490 5485 5481 5477 5473 5468 5466 5463 5460 5455 5452 5450 5447 5444 5441 5438 5437 5437 5434
5575 5570 5565 5561 5556 5552 5547 5542 5538 5533 5528 5523 5517 5512 5507 5502 5496 5491 5485 5479 5475 5470 5466 5460 5456 5452 5450 5451 5449 5442 5438 5437 5435 5432 5429 5426 5426 5426
5568 5564 5559 5555 5550 5545 5541 5535 5530 5525 5519 5514 5508 5503 5497 5492 5486 5480 5475 5469 5465 5460 5455 5450 5445 5441 5438 5437 5437 5435 5429 5426 5424 5423 5421 5419 5417 5416
5562 5558 5554 5549 5544 5539 5534 5529 5523 5518 5512 5506 5501 5495 5489 5483 5477 5471 5466 5461 5455 5450 5445 5442 5437 5433 5429 5427 5426 5427 5423 5418 5413 5411 5411 5409 5409 5409
5557 5552 5548 5543 5538 5533 5528 5521 5515 5510 5504 5498 5493 5487 5481 5475 5469 5463 5457 5452 5446 5441 5437 5433 5429 5425 5421 5418 5417 5417 5415 5413 5408 5404 5400 5397 5395 5396
5552 5547 5542 5537 5532 5527 5521 5515 5509 5503 5497 5491 5485 5479 5473 5467 5461 5455 5449 5444 5439 5434 5429 5425 5421 5417 5413 5410 5408 5406 5405 5403 5402 5400 5397 5392 5388 5386